This is the latest recevied weather packets stored in our database for station/object N0RPM-13. If no packets are shown the sender has not sent any weather packets the latest 10 day(s).
| Time | Temp. | Humidity | Pressure | Rain* | Wind** | Luminosity | Snow |
|---|---|---|---|---|---|---|---|
| 1788529453 | 25° C | 89% | 1011.7 hPa | 0 mm | - | 58 W/m² | - |
| 1788529165 | 25° C | 89% | 1011.7 hPa | 0 mm | - | 50 W/m² | - |
| 1788528843 | 24.44° C | 90% | 1011.9 hPa | 0 mm | - | 48 W/m² | - |
| 1788528538 | 24.44° C | 91% | 1011.7 hPa | 0 mm | - | 61 W/m² | - |
| 1788528233 | 24.44° C | 91% | 1011.9 hPa | 0 mm | - | 46 W/m² | - |
| 1788527933 | 23.89° C | 91% | 1011.5 hPa | 0 mm | - | 46 W/m² | - |
| 1788527629 | 23.89° C | 91% | 1011.6 hPa | 0 mm | - | 52 W/m² | - |
| 1788527329 | 23.89° C | 92% | 1011.5 hPa | 0 mm | - | 69 W/m² | - |
| 1788527028 | 23.33° C | 94% | 1011.4 hPa | 0 mm | - | 52 W/m² | - |
| 1788526723 | 22.78° C | 96% | 1011.5 hPa | 0 mm | - | 84 W/m² | - |
| 1788526420 | 22.78° C | 96% | 1011.2 hPa | 0 mm | - | 39 W/m² | - |
| 1788526119 | 22.78° C | 96% | 1011.1 hPa | 0 mm | - | 36 W/m² | - |
| 1788525815 | 22.78° C | 97% | 1011.2 hPa | 0 mm | - | 34 W/m² | - |
| 1788525510 | 22.22° C | 97% | 1011.2 hPa | 0 mm | - | 33 W/m² | - |
| 1788525206 | 22.22° C | 97% | 1011 hPa | 0 mm | - | 30 W/m² | - |
| 1788524901 | 22.22° C | 97% | 1011.2 hPa | 0 mm | - | 28 W/m² | - |
| 1788524600 | 22.22° C | 97% | 1011.2 hPa | 0 mm | - | 26 W/m² | - |
| 1788524295 | 21.67° C | 97% | 1011 hPa | 0 mm | - | 23 W/m² | - |
| 1788523992 | 21.67° C | 97% | 1010.9 hPa | 0 mm | - | 21 W/m² | - |
| 1788523688 | 21.67° C | 97% | 1011.1 hPa | 0 mm | - | 18 W/m² | - |
| 1788523383 | 21.67° C | 97% | 1010.6 hPa | 0 mm | - | 15 W/m² | - |
| 1788523078 | 21.67° C | 97% | 1011 hPa | 0 mm | - | 13 W/m² | - |
| 1788522774 | 21.67° C | 97% | 1010.9 hPa | 0 mm | - | 10 W/m² | - |
| 1788522468 | 21.67° C | 97% | 1010.8 hPa | 0 mm | - | 7 W/m² | - |
| 1788522168 | 21.67° C | 97% | 1011 hPa | 0 mm | - | 5 W/m² | - |
* Rain latest hour (hover to see other rain measurements)
** Current wind speed in m/s (hover to see current wind gust speed)